Terminal Aerodrome Forecast
Issued by NWS Mt. Holly, NJ

Home | Current Version | Previous Version | Text Only | Print | Product List | Glossary On
Versions: 1 2 3 4 5 6 7 8 9 10 11 12 13 14 15 16
000
FTUS41 KPHI 180500
TAFILG
TAF
KILG 180522Z 1806/1906 VRB03KT P6SM FEW060
     FM181400 32006KT P6SM SCT050
     FM182300 30003KT P6SM FEW050
     FM190500 36004KT P6SM SKC=

USA.gov is the U.S. government's official web portal to all federal, state and local government web resources and services.